Torna al catalogo

NOAA 16 DEB

AttivoSSO
NORAD 41229·DEBRIS·🇺🇸 United States

Lanciato Sep 21, 2000 da Vandenberg Space Force Base

Loading…

Prossimi Passaggi (prossime 24 ore)

TLE

AggiornatoSource: Space-Track

Epoca: Sep 14, 2026, 09:45 UTC

1 41229U 00055EJ  26257.40657052  .00003077  00000-0  13090-2 0  9991
2 41229  98.9208 316.2671 0055631 346.8339  13.1384 14.25136419552365

Traccia NOAA 16 DEB in tempo reale con AllMySat

Download on the App Store